www.pogodaiklimat.ru

Погода и климат >> Архив погоды >> Беларусь >> Мозырь


АРХИВ ПОГОДЫ в Мозыре

Время (UTC), дата Ветер
(напр.,м/с)
 
Видим.   Явления Облачность Т
(С)
Тd
(С)
f
(%)
Тe
(С)
Тes
(С)
Комфортность P
(гПа)
Po
(гПа)
Тmin
(С)
Tmax
(С)
R
(мм)
R24
(мм)
S
(см)
18 13.07 штиль 0 11 км 4/0
[Ac trans Ci fib]
+17.7 +10.4 62 +18 +18 прохладно 1009.9 987.9 +21.7
21 13.07 штиль 0 10 км 4/0
[Ac trans]
+14.9 +9.9 72 +15 +15 прохладно 1010.5 988.2
00 14.07 штиль 0 10 км 3/0
[Ac trans]
+14.2 +10.1 76 +14 +14 прохладно 1009.9 987.6
03 14.07 штиль 0 10 км 9/0
[Ac und]
+13.6 +11.4 87 +13 +13 холодно 1009.5 987.1
06 14.07 СВ 1 7000 м слаб. ливневой дождь 10/8 630 м
[Cb cap Ac As]
+13.2 +12.2 94 +13 +14 холодно 1009.9 987.5 +12.9 1
09 14.07 СВ 1 20 км в посл. час ливневой дождь 10/3 600 м
[Cb cap Ac As]
+17.1 +13.1 77 +18 +22 прохладно 1009.8 987.7
12 14.07 С 2 9000 м слаб. ливневой дождь 9/6 800 м
[Cb cap Ac und]
+18.3 +13.2 72 +19 +22 холодно 1009.3 987.3
15 14.07 ЮВ 1 15 км {гроза, ливн. осадки} 9/4 1000 м
[Sc Ac und]
+17.4 +15.0 86 +18 +20 холодно 1009.7 987.6
18 14.07 штиль 0 10 км {гроза, ливн. осадки} 6/0
[Ac trans Ci fib]
+15.3 +13.5 89 +15 +15 холодно 1009.8 987.6 +19.6 2
21 14.07 штиль 0 3000 м дымка 4/0
[Ac trans]
+13.4 +13.2 99 +13 +13 холодно 1010.4 988.0
00 15.07 штиль 0 2300 м дымка ясно +12.7 +12.5 99 +12 +12 прохладно 1010.1 987.6
03 15.07 штиль 0 3300 м дымка 6/0
[Ac trans]
+12.2 +12.0 99 +12 +12 холодно 1010.0 987.5
06 15.07 СВ 2 6000 м дымка {туман} 10/8 270 м
[Frnb Ac As]
+15.3 +13.9 91 +15 +15 холодно 1010.1 987.9 +11.9
09 15.07 С 1 20 км 8/5 1000 м
[Cu med, cong Cs]
+19.3 +13.8 70 +22 +30 комфорт 1009.9 988.0
12 15.07 СВ 2 15 км гроза без осадков 9/5 600 м
[Cb calv Ac und]
+19.4 +13.0 66 +21 +24 комфорт 1009.7 987.8
15 15.07 Ю 1 5000 м слаб. ливневой дождь {гроза} 10/10 360 м
[Cb cap]
+15.5 +15.0 97 +16 +16 очень
холодно
1010.5 988.3
18 15.07 штиль 0 5000 м дымка {гроза, ливн. осадки} 10/4 600 м
[Cb cap Ac As]
+15.0 +14.3 96 +15 +15 холодно 1010.6 988.3 +21.2 2
21 15.07 штиль 0 3000 м дымка 8/0
[Ac und]
+13.7 +13.3 97 +13 +13 холодно 1011.2 988.8
00 16.07 СЗ 1 5000 м слаб. ливневой дождь 10/8 720 м
[Cb cap Ac As]
+13.5 +12.6 94 +14 +14 прохладно 1011.5 989.1
03 16.07 штиль 0 7000 м дымка {ливн. осадки} ясно +11.1 +10.5 96 +10 +11 очень
холодно
1010.4 987.8
06 16.07 штиль 0 15 км {ливн. осадки} ясно +17.6 +13.3 76 +18 +27 по сезону 1010.3 988.2 +10.8 3
09 16.07 штиль 0 20 км 5/5 1000 м
[Cu med, cong]
+22.0 +12.2 54 +24 +35 комфорт 1009.3 987.6
12 16.07 С 1 11 км слаб. ливневой дождь 8/5 600 м
[Cb cap Ac trans]
+18.4 +15.0 81 +20 +25 холодно 1008.9 986.9
15 16.07 штиль 0 17 км в посл. час ливневой дождь 8/4 600 м
[Cu med, cong Ac trans]
+21.5 +12.4 56 +24 +26 комфорт 1007.6 985.9
18 16.07 С 1 13 км {ливн. осадки} 8/3 1000 м
[Cb cap Ac und]
+18.8 +12.7 68 +21 +21 комфорт 1007.5 985.6 +23.5 2
21 16.07 штиль 0 10 км 10/0
[Ac As]
+16.6 +11.5 72 +17 +17 по сезону 1006.9 984.8
00 17.07 З 1 10 км 10/0
[Ac As]
+14.2 +12.0 87 +15 +15 по сезону 1006.9 984.6
03 17.07 штиль 0 3100 м дымка {ливн. осадки} 5/0
[Ac cast]
+12.6 +12.2 97 +12 +12 холодно 1007.2 984.8
06 17.07 СЗ 1 7000 м дымка {ливн. осадки} 9/8 330 м
[Frnb Ac und]
+15.7 +14.0 90 +16 +17 прохладно 1006.7 984.6 +12.5 0.5
09 17.07 З 1 8000 м слаб. ливневой дождь 8/6 600 м
[Cb cap Ac und]
+17.3 +11.9 71 +18 +23 прохладно 1006.4 984.4
12 17.07 ЮЗ 1 15 км гроза без осадков {ливн. осадки} 8/4 600 м
[Cb calv Ac trans Ci fib]
+18.6 +11.8 65 +20 +27 холодно 1006.1 984.2
15 17.07 штиль 0 15 км {гроза, ливн. осадки} 6/3 600 м
[Cu med, cong Ac trans Ci]
+18.0 +11.8 67 +18 +21 холодно 1005.8 983.9
18 17.07 штиль 0 11 км {гроза, ливн. осадки} 8/0
[Ac trans Cs]
+14.8 +12.1 84 +15 +15 холодно 1006.9 984.7 +19.5 6
21 17.07 штиль 0 9000 м дымка 10/8 570 м
[Sc Ac As]
+13.4 +11.9 91 +13 +13 холодно 1007.7 985.3
00 18.07 З 1 6000 м дымка 8/0
[Ac trans]
+11.9 +11.5 97 +12 +12 прохладно 1007.8 985.3
03 18.07 штиль 0 3300 м дымка 8/0
[Ac trans]
+11.1 +10.7 97 +10 +11 очень
холодно
1008.0 985.4
06 18.07 З 1 17 км 3/0
[Ac trans]
+15.9 +12.7 81 +17 +23 прохладно 1007.7 985.6 +10.6
09 18.07 З 2 20 км 8/8 1000 м
[Cu med, cong]
+20.1 +13.7 67 +23 +26 комфорт 1007.7 985.9
12 18.07 З 3
{11}
2000 м {ливн. осадки} 9/5 600 м
[Cb cap Ac trans Ci fib]
+18.7 +14.5 77 +20 +23 холодно 1008.5 986.6
15 18.07 СЗ 1 20 км {ливн. осадки} 9/5 600 м
[Cb cap Ac und]
+17.0 +12.9 77 +18 +19 холодно 1009.6 987.5
18 18.07 штиль 0 10 км в посл. час ливневой дождь 6/0
[Ac und]
+15.4 +13.8 90 +15 +15 холодно 1010.4 988.2 +20.8 2
21 18.07 З 1 3500 м дымка 4/4 1000 м
[Sc]
+14.2 +13.6 96 +14 +14 холодно 1011.5 989.1
00 19.07 штиль 0 3000 м дымка 5/0
[Ci fib]
+12.8 +12.4 97 +12 +12 прохладно 1012.0 989.5
03 19.07 штиль 0 3500 м дымка ясно +12.0 +11.7 98 +11 +12 холодно 1013.2 990.6
06 19.07 ЮЗ 1 17 км ясно +17.6 +13.6 77 +19 +27 по сезону 1013.4 991.3 +11.9
09 19.07 ЮЗ 2 20 км 3/3 1000 м
[Cu hum]
+23.0 +12.5 52 +26 +37 жарко 1013.6 991.9
12 19.07 СЗ 2 20 км 6/4 600 м
[Cu med, cong Ac trans]
+22.9 +12.3 51 +26 +32 жарко 1013.7 992.0
15 19.07 ЮЗ 2 20 км 4/3 600 м
[Cu med, cong Ac trans]
+23.9 +11.4 45 +25 +28 комфорт 1013.4 991.8
18 19.07 штиль 0 20 км ясно +19.6 +11.6 60 +21 +21 комфорт 1014.3 992.3 +25.8
21 19.07 штиль 0 10 км ясно +15.5 +11.7 78 +15 +15 прохладно 1015.8 993.4
00 20.07 штиль 0 10 км ясно +14.5 +11.8 84 +14 +14 прохладно 1016.3 993.8
03 20.07 штиль 0 12 км ясно +13.5 +11.4 87 +13 +13 холодно 1016.9 994.3
06 20.07 ЮЗ 1 20 км ясно +19.7 +13.2 66 +22 +30 комфорт 1016.9 994.9 +13.4
09 20.07 СЗ 1 20 км 3/3 1000 м
[Cu hum]
+26.2 +10.7 38 +27 +40 жарко 1016.9 995.4
12 20.07 С 1 20 км 4/4 1000 м
[Cu med, cong]
+27.3 +11.7 38 +28 +38 жарко 1016.6 995.2
15 20.07 СЗ 1 20 км 3/3 1000 м
[Cu med, cong]
+27.8 +9.7 32 +28 +31 жарко 1016.3 995.0

 

Местоположение метеостанции Мозырь (Гомельская область, Беларусь): широта 52.04 долгота 29.19 высота над уровнем моря 190 м.

В архиве по умолчанию представлена погода в Мозыре за последнюю неделю. Архивные данные за месяц целиком и за предыдущие месяцы, начиная с января 2011 года, Вы можете получить, выбрав интересующий диапазон дат из раскрывающегося списка и нажав кнопку "Ввод!".


*Определитесь, кто Вы:
робот инопланетянин человек

Внимание! Время в таблицах - всемирное. Для получения местного времени необходимо прибавить поправку, которая равна 3 ч.

Смотрите также архив погоды в соседних городах и на ближайших метеорологических станциях:

Погода в Василевичах (Гомельская область, Беларусь) (50 км)
Погода в Октябре (Гомельская область, Беларусь) (69 км)
Погода в Брагине (Гомельская область, Беларусь) (78 км)
Погода в Овруче (Житомирская область, Украина) (85 км)
Погода в Житковичах (Гомельская область, Беларусь) (92 км)
Погода в Чернобыле (Киевская область, Украина) (111 км)
Погода в Жлобине (Гомельская область, Беларусь) (111 км)
Погода в Коростени (Житомирская область, Украина) (127 км)
Погода в Гомеле (Гомельская область, Беларусь) (127 км)
Погода в Бобруйске (Могилевская область, Беларусь) (130 км)

Пояснения к столбцам:

Ветер - указаны скорость ветра в м/с - средняя за 10 мин, порывы в срок и между сроками (в фигурных скобках) и направление, откуда дует ветер: С - северный, СВ - северо-восточный, В - восточный, ЮВ - юго-восточный, Ю - южный, ЮЗ - юго-западный, З - западный, СЗ - северо-западный.
Видимость - горизонтальная дальность видимости в метрах или километрах. При видимости от 1 до 10 км при отсутствии осадков обычно наблюдается дымка, при ухудшении видимости до 1 км и менее - туман. В сухую погоду видимость может ухудшаться дымом, пылью или мглою.
Явления - указаны атмосферные явления, наблюдавшиеся в срок или в последний час перед сроком; фигурными скобками обозначены явления, наблюдавшиеся между сроками (за 1-3 часа до срока); квадратными скобками обозначены град или гололедные отложения с указанием их диаметра в мм.
Облачность - указаны через наклонную черту общая и нижняя облачность в баллах и высота нижней границы облаков в метрах; квадратными скобками обозначены формы облаков: Ci - перистые, Cs - перисто-слоистые, Cc - перисто-кучевые, Ac - высококучевые, As - высокослоистые, Sc - слоисто-кучевые, Ns - слоисто-дождевые, Cu - кучевые, Cb - кучево-дождевые. Подробнее классификацию облаков см. в Атласе облаков (PDF).
T - Температура воздуха - температура, измеренная на высоте 2 м над землей.
Td - Температура точки росы - температура, при понижении до которой содержащийся в воздухе водяной пар достигнет насыщения.
f - Относительная влажность воздуха - влажноcть воздуха, измеренная на высоте 2 м над землей.
Te - Эффективная температура - температура, которую ощущает одетый по сезону человек в тени. Характеристика душности погоды. При расчете учитывается влияние влажности воздуха и скорости ветра на теплоощущения человека.
Tes - Эффективная температура на солнце - температура, которую ощущает человек, с поправкой на солнечный нагрев. Характеристика знойности погоды. Зависит от высоты солнца над горизонтом, облачности и скорости ветра. Ночью, в пасмурную погоду, а также при ветре 12 м/с и более поправка равна нулю.
P - Атмосферное давление - приведенное к уровню моря атмосферное давление.
Po - Атмосферное давление - измеренное на уровне метеостанции атмосферное давление.
Tmin - Минимальная температура - минимум температуры воздуха на высоте 2 м над землей.
Tmax - Максимальная температура - максимум температуры воздуха на высоте 2 м над землей.
R - Количество осадков - Количество выпавших осадков за период времени, мм. При наведении курсора мыши на число - период времени, за который выпало указанное количество осадков.
R24 - Количество осадков - Количество выпавших осадков за 24 часа, мм.
S - Снежный покров - Высота снежного покрова, см. При наведении курсора мыши на число - состояние снежного покрова и степень покрытия местности в баллах.